Regional Weather Roundup
Issued by NWS

Home | Current Version | Previous Version | Text Only | Print | Product List | Glossary Off
Versions: 1 2 3 4 5 6 7 8 9 10 11 12 13 14 15 16 17 18 19 20 21 22 23 24 25 26 27 28 29 30 31 32 33 34 35 36 37 38 39 40 41 42 43 44 45 46 47 48 49 50

000
ASUS45 KBOU 030807
RWRCO

WEATHER ROUNDUP FOR COLORADO
NATIONAL WEATHER SERVICE DENVER/BOULDER CO
200 AM MDT WED JUN 03 2015

NOTE: "FAIR" INDICATES FEW OR NO CLOUDS BELOW 12000 FEET WITH NO
SIGNIFICANT WEATHER AND/OR OBSTRUCTIONS TO VISIBILITY.

COZ001>005-013-030-031-030900-
...NORTHWEST COLORADO...

CITY           SKY/WX    TMP DP  RH WIND       PRES   REMARKS
CRAIG          CLEAR     40  35  83 SE5       30.05R
HAYDEN         CLEAR     48  32  53 NE6       30.06R
MEEKER         CLEAR     52  31  44 CALM      30.06R
MOUNT WERNER   NOT AVBL
STEAMBOAT SPGS CLEAR     46  33  61 CALM      30.08S
WALDEN         CLEAR     41  30  65 NE6       30.15S
$$

COZ006>008-011-030900-
...WEST CENTRAL VALLEYS...

CITY           SKY/WX    TMP DP  RH WIND       PRES   REMARKS
GRAND JUNCTION CLEAR     59  27  29 SE15      29.91S
MONTROSE       CLEAR     59  28  30 SE5       30.02F
EAGLE          CLEAR     59  37  44 CALM      30.11S
RIFLE          CLEAR     50  36  58 S3        30.00S
DELTA          CLEAR     58  27  30 NE9       29.98F HAZE
NUCLA          CLEAR     55  27  33 E9        30.05S
$$

COZ017>023-064>068-030900-
...SOUTHWEST COLORADO...

CITY           SKY/WX    TMP DP  RH WIND       PRES   REMARKS
DURANGO        CLEAR     47  31  53 N3        30.10S
CORTEZ         CLEAR     50  32  50 NE6       30.04F
PAGOSA SPRINGS CLEAR     47  27  44 CALM      30.17F
TELLURIDE      CLEAR     51  22  32 S3        30.27S
WOLF CREEK PAS NOT AVBL
$$

COZ009-010-012-014-032>034-037-058>063-030900-
...CENTRAL COLORADO...

CITY           SKY/WX    TMP DP  RH WIND       PRES   REMARKS
ASPEN          CLEAR     46  27  47 SW10      30.15F
BUENA VISTA    PTCLDY    47  24  41 NW3       30.18S
COPPER MTN     CLEAR     45  10  24 SW10G16   30.43S
BERTHOUD PASS  FAIR      37  32  81 W30G44    30.43F
COTTONWOOD PAS NOT AVBL
GUNNISON       CLEAR     43  27  52 CALM      30.20F
KREMMLING      CLEAR     41  32  70 CALM      30.14S
LEADVILLE      PTCLDY    36  18  48 CALM      30.28F
MONARCH PASS   CLEAR     43  14  31 W25       30.52F
SALIDA         PTCLDY    53  22  30 CALM      30.22R
SUNLIGHT       CLEAR     46  18  31 CALM      30.36S
WILKERSON PASS CLEAR     46  10  23 W12G17    30.39S
$$

COZ069>075-030900-
...SAN LUIS VALLEY/SANGRE DE CRISTO MOUNTAINS...

CITY           SKY/WX    TMP DP  RH WIND       PRES   REMARKS
ALAMOSA        PTCLDY    46  30  53 NE3       30.15S
LA VETA PASS   PTCLDY   N/A N/A N/A MISG      30.28S
SAGUACHE       CLEAR     50  23  34 NW7       30.17F
$$

COZ035-036-038>040-030900-
...NORTHERN COLORADO FRONT RANGE...

CITY           SKY/WX    TMP DP  RH WIND       PRES   REMARKS
DENVER INTL AP PTCLDY    59  45  59 W9        29.93S
DMNS CITY PARK   N/A     60  40  47 S2        29.93F
AURORA         PTCLDY    61  42  49 W5        29.96S
FRONT RANGE AP CLEAR     55  46  71 W12       29.95S
ERIE MUNI ARPT CLEAR     51  44  76 SW3       29.93S
BOULDER MUN AP CLEAR     61  32  33 SW3       29.93S
CENTENNIAL     PTCLDY    58  38  47 SW9       29.97S
BROOMFIELD     CLEAR     63  45  51 N6        29.96S
FORT COLLINS   CLEAR     57  46  67 NW7       29.93S
LONGMONT       CLEAR     54  42  63 NW6       29.94S
$$

COZ041-046-047-076>085-087-088-030900-
...PIKES PEAK/PALMER DIVIDE AND SOUTHERN FOOTHILLS...

CITY           SKY/WX    TMP DP  RH WIND       PRES   REMARKS
COLO. SPRINGS  CLEAR     66  27  23 NW13      29.98S
A. F. ACADEMY  CLEAR     56  29  36 N7        30.02R
ELLICOTT       CLEAR    N/A N/A N/A N7        29.96R
FALCON         CLEAR     63  26  24 NW12      30.04S
FORT CARSON    NOT AVBL
LIMON          CLEAR     55  51  86 W7        29.91S
MONUMENT HILL  CLEAR     55  30  38 S7        30.06R
TRINIDAD       CLEAR     58  33  39 W14       29.96F
$$

COZ042>045-048>051-090-091-030900-
...NORTHEAST COLORADO...

CITY           SKY/WX    TMP DP  RH WIND       PRES   REMARKS
GREELEY ARPT   CLEAR     57  54  88 NW7       29.89S
AKRON          CLEAR     60  54  80 NW8       29.85
BURLINGTON     CLEAR     63  57  81 S10       29.82S
WRAY           PTCLDY    64  57  80 W5        29.78F
STERLING       CLEAR     63  59  88 NE10      29.84R
HOLYOKE        NOT AVBL
FORT MORGAN    CLEAR     61  55  80 N7        29.85F
$$

COZ086-089-092>099-030900-
...SOUTHEAST COLORADO...

CITY           SKY/WX    TMP DP  RH WIND       PRES   REMARKS
PUEBLO         CLEAR     58  50  75 W9        29.87S
LA JUNTA       CLEAR     63  42  46 W16       29.81R
LAMAR          CLEAR     65  52  62 SW7       29.76R
SPRINGFIELD      N/A     61  55  81 SW8       29.86S
$$



USA.gov is the U.S. government's official web portal to all federal, state and local government web resources and services.